Location: Br�ttisellen
(47.4227°N, 8.6287°E)
Time: 20:56:10
(UTC+00:00)

Iridium 4 Rocket - Pass Details

Date: 09 April 2020
Orbit: 585 x 904 km, 86.9° (Epoch: 27 May)

Event Time Altitude Azimuth Distance (km) Brightness Sun altitude
Rises 19:52:03 0° 2° (N) 2,855 6.9 -17.1°
Reaches altitude 10° 19:54:21 10° 9° (N) 1,930 5.9 -17.4°
Maximum altitude 19:58:23 45° 83° (E) 802 3.3 -18.0°
Enters shadow 19:59:09 40° 115° (ESE) 869 3.3 -18.1°
